Weather History for Crestview, FL

Change the Weather History Date:

Thursday, December 27, 2012

  Actual Average Record
Temperature  
Mean Temperature 43 °F -  
Max Temperature 54 °F 61 °F 79 °F (1982)
Min Temperature 32 °F 36 °F 20 °F (1977)
Degree Days  
Heating Degree Days 22    
Growing Degree Days 0 (Base 50)    
Moisture  
Dew Point 31 °F    
Average Humidity 74    
Maximum Humidity 93    
Minimum Humidity 45    
Precipitation  
Precipitation 0.00 in - - ()
Sea Level Pressure  
Sea Level Pressure 30.13 in    
Wind  
Wind Speed 3 mph (NNW)    
Max Wind Speed 9 mph    
Max Gust Speed 18 mph    
Visibility 9 miles    
Events      
Averages and records for this station are not official NWS values.
T = Trace of Precipitation, MM = Missing Value Source: NWS Daily Summary

Daily Weather History Graph

Daily Weather History Graph

Search for Another Location

Airport:

Trip Planner

Search our weather history database for the weather conditions in past years. The results will help you decide how hot, cold, wet, or windy it might be!

Date:

Astronomy

Dec. 27, 2012 Rise Set
Actual Time 6:42 AM CST 4:52 PM CST
Civil Twilight 6:15 AM CST 5:19 PM CST
Nautical Twilight 5:45 AM CST 5:49 PM CST
Astronomical Twilight 5:16 AM CST 6:18 PM CST
Moon 4:33 PM CST (12/27) 5:54 AM CST (12/27)
Length of Visible Light 11h 03m
Length of Day
10h 10m
Full, 100% of the Moon is Illuminated
Dec 27
Full
Dec 28
Full
Jan 4
Last Quarter
Jan 11
New
Jan 18
First Quarter

Hourly Weather History & Observations

Time (CST) Temp. Windchill Dew Point Humidity Pressure Visibility Wind Dir Wind Speed Gust Speed Precip Events Conditions
12:35 AM 33.8 °F - 30.2 °F 87% 30.12 in 10.0 mi Calm Calm - N/A   Mostly Cloudy
12:53 AM 36.0 °F 33.3 °F 32.0 °F 86% 30.12 in 10.0 mi NNW 3.5 mph - N/A   Overcast
1:53 AM 37.0 °F 33.3 °F 32.0 °F 82% 30.12 in 10.0 mi North 4.6 mph - N/A   Overcast
2:53 AM 37.9 °F 34.4 °F 30.9 °F 76% 30.12 in 10.0 mi Variable 4.6 mph - N/A   Overcast
3:53 AM 37.0 °F 30.4 °F 30.0 °F 76% 30.12 in 10.0 mi North 9.2 mph 18.4 mph N/A   Overcast
4:53 AM 36.0 °F 29.6 °F 30.0 °F 79% 30.12 in 10.0 mi North 8.1 mph - N/A   Overcast
5:33 AM 35.6 °F 31.7 °F 28.4 °F 75% 30.14 in 10.0 mi Variable 4.6 mph - N/A   Overcast
5:53 AM 35.1 °F 29.3 °F 28.9 °F 78% 30.15 in 10.0 mi NNE 6.9 mph - N/A   Overcast
7:53 AM 36.0 °F 30.3 °F 30.0 °F 79% 30.15 in 10.0 mi North 6.9 mph - N/A   Overcast
8:53 AM 37.0 °F - 30.0 °F 76% 30.19 in 10.0 mi Calm Calm - N/A   Overcast
9:53 AM 39.9 °F 35.8 °F 30.9 °F 70% 30.20 in 10.0 mi NNW 5.8 mph - N/A   Mostly Cloudy
10:01 AM 41.0 °F 38.0 °F 30.2 °F 65% 30.20 in 10.0 mi Variable 4.6 mph - N/A   Scattered Clouds
10:53 AM 43.0 °F 40.3 °F 30.9 °F 62% 30.19 in 10.0 mi NW 4.6 mph - N/A   Clear
11:53 AM 48.0 °F - 32.0 °F 54% 30.16 in 10.0 mi Calm Calm - N/A   Clear
12:53 PM 50.0 °F - 32.0 °F 50% 30.12 in 10.0 mi Calm Calm - N/A   Clear
1:53 PM 52.0 °F - 32.0 °F 47% 30.10 in 10.0 mi Calm Calm - N/A   Clear
2:53 PM 53.1 °F - 32.0 °F 45% 30.10 in 10.0 mi NW 5.8 mph - N/A   Clear
3:53 PM 54.0 °F - 34.0 °F 47% 30.09 in 10.0 mi Calm Calm - N/A   Clear
4:53 PM 48.9 °F - 36.0 °F 61% 30.10 in 10.0 mi Calm Calm - N/A   Clear
6:53 PM 37.9 °F - 35.1 °F 89% 30.12 in 10.0 mi Calm Calm - N/A   Clear
7:53 PM 36.0 °F - 34.0 °F 93% 30.12 in 8.0 mi Calm Calm - N/A   Clear
8:53 PM 35.1 °F - 32.0 °F 89% 30.11 in 7.0 mi Calm Calm - N/A   Clear
9:53 PM 33.1 °F - 30.0 °F 89% 30.12 in 7.0 mi Calm Calm - N/A   Clear
10:53 PM 32.0 °F - 30.0 °F 92% 30.12 in 7.0 mi Calm Calm - N/A   Clear
11:53 PM 32.0 °F - 30.0 °F 92% 30.12 in 7.0 mi Calm Calm - N/A   Clear